Location: Boncourt
(49.6160°N, 3.9448°E)
Time: 07:33:20
(UTC+00:00)

Okean O Rocket - Pass Details

Date: 09 February 2023
Orbit: 620 x 643 km, 98.1° (Epoch: 22 March)

Event Time Altitude Azimuth Distance (km) Brightness Sun altitude
Rises 19:45:39 0° 196° (SSW) 2,919 5.1 -28.3°
Reaches altitude 10° 19:48:09 10° 210° (SSW) 2,020 4.4 -28.7°
Maximum altitude 19:51:49 26° 266° (W) 1,279 3.7 -29.3°
Drops below altitude 10° 19:55:32 10° 323° (NW) 2,045 4.8 -29.9°
Sets 19:58:05 0° 336° (NNW) 2,962 5.5 -30.3°
